Terug naar catalogus

SL-14 DEB

ActiefPO
NORAD 25444·DEBRIS·🇷🇺 Russia

Gelanceerd Aug 18, 1987 vanaf Plesetsk Cosmodrome

Loading…

Volgende Passages (komende 24 uur)

TLE

VersSource: Space-Track

Epoch: Sep 14, 2026, 10:23 UTC

1 25444U 87068BX  26257.43266059  .00000442  00000-0  30474-3 0  9996
2 25444  82.5551 125.9220 0017515 137.6568  38.0367 13.97167612438750

Volg SL-14 DEB in realtime met AllMySat

Download on the App Store